This demonstration page uses our WeatherBlox Daily Observations layout. Learn more.

Left ArrowRight Arrow

Hourly Observations for March 29, 2021

Temp ( °F °C ) Dew Point ( °F °C ) Humidity (%) Winds ( mph kmh ) Pressure ( in mb ) Visibility ( mi km ) Precip ( " mm )
12:53 am 00:53 Cloudy 51 10.6 28 -2.2 41 41 WNW 13 20 29.23 990 10 16 N/A
1:19 am 01:19 Cloudy 50 10 33 0.6 52 52 WNW 40 65 29.28 991 7 11 N/A
1:53 am 01:53 Cloudy 46 7.8 35 1.7 66 66 W 33 54 29.26 991 10 16 0.00 0.00
2:53 am 02:53 Cloudy 45 7.2 29 -1.7 54 54 SW 18 30 29.26 991 10 16 N/A
3:53 am 03:53 Cloudy 42 5.6 31 -0.6 65 65 WNW 25 41 29.32 993 10 16 N/A
4:53 am 04:53 Cloudy 35 1.7 30 -1.1 82 82 W 21 33 29.36 994 10 16 0.00 0.00
5:53 am 05:53 Partly Cloudy 34 1.1 28 -2.2 79 79 W 21 33 29.39 995 10 16 N/A
6:53 am 06:53 Mostly Cloudy 33 0.6 28 -2.2 82 82 W 18 30 29.41 996 10 16 N/A
7:06 am 07:06 Cloudy 34 1.1 28 -2.2 79 79 W 20 31 29.50 999 10 16 N/A
7:29 am 07:29 Windy with Snow Likely 32 undefined 28 -2.2 85 85 W 25 41 29.53 1000 2 2 0.00 0.00
7:33 am 07:33 Windy with Snow Likely 31 -0.6 28 -2.2 89 89 W 24 39 29.53 1000 1 1 0.00 0.00
7:37 am 07:37 Cloudy with Snow 31 -0.6 28 -2.2 89 89 W 26 43 29.53 1000 1 1 0.00 0.00
7:45 am 07:45 Cloudy with Heavy Snow 31 -0.6 29 -1.7 92 92 W 24 39 29.53 1000 0 0 0.01 0.25
7:53 am 07:53 Mostly Cloudy with Snow 30 -1.1 28 -2.2 92 92 WNW 30 48 29.48 998 0 0 0.01 0.25
8:01 am 08:01 Windy with Snow Likely 29 -1.7 25 -3.9 85 85 NW 36 57 29.58 1002 1 2 0.00 0.00
8:05 am 08:05 Windy with Snow Likely 28 -2.2 24 -4.4 85 85 NW 33 54 29.59 1002 2 3 0.00 0.00
8:12 am 08:12 Windy with Snow Likely 27 -2.8 23 -5 85 85 NW 31 50 29.60 1002 3 5 0.00 0.00
8:21 am 08:21 Mostly Cloudy 27 -2.8 20 -6.7 75 75 NW 31 50 29.61 1003 8 13 0.00 0.00
8:53 am 08:53 Mostly Cloudy 25 -3.9 19 -7.2 78 78 NW 36 57 29.56 1001 10 16 0.00 0.00
9:53 am 09:53 Partly Cloudy 25 -3.9 16 -8.9 69 69 NW 28 44 29.65 1004 10 16 N/A
10:04 am 10:04 Mostly Cloudy 24 -4.4 17 -8.3 75 75 NW 24 39 29.76 1008 10 16 N/A
10:23 am 10:23 Windy with Snow Likely 23 -5 18 -7.8 81 81 WNW 29 46 29.78 1009 3 4 0.00 0.00
10:31 am 10:31 Windy with Snow Likely 24 -4.4 17 -8.3 75 75 NW 31 50 29.78 1008 8 13 0.00 0.00
10:49 am 10:49 Windy with Snow Likely 23 -5 18 -8 80 80 WNW 28 44 29.82 1010 2 3 0.00 0.00
10:53 am 10:53 Windy with Snow Likely 23 -5 17 -8.3 78 78 NW 26 43 29.74 1007 1 2 0.00 0.00
10:59 am 10:59 Windy with Snow Likely 22 -5.6 15 -9.4 75 75 NW 28 44 29.84 1010 3 4 0.00 0.00
11:06 am 11:06 Windy with Snow Likely 22 -5.6 15 -9.4 75 75 NW 30 48 29.84 1010 4 6 0.00 0.00
11:17 am 11:17 Cloudy with Haze 21 -6.1 13 -10.6 71 71 NW 35 56 29.86 1011 6 10 0.00 0.00
11:53 am 11:53 Cloudy 21 -6.1 13 -10.6 71 71 NW 36 57 29.80 1009 10 16 0.00 0.00
12:42 pm 12:42 Windy with Snow Likely 21 -6 14 -10 74 74 WNW 26 43 29.94 1014 4 6 N/A
12:53 pm 12:53 Cloudy with Haze 21 -6.1 14 -10 74 74 WNW 24 39 29.85 1011 6 10 0.00 0.00
1:00 pm 13:00 Windy with Snow Likely 21 -6.1 15 -9.4 78 78 WNW 25 41 29.96 1014 3 4 0.00 0.00
1:15 pm 13:15 Windy with Snow Likely 20 -6.7 13 -10.6 74 74 WNW 23 37 29.97 1015 1 2 0.00 0.00
1:25 pm 13:25 Windy with Snow Likely 20 -6.7 13 -10.6 74 74 NW 24 39 29.97 1015 3 4 0.00 0.00
1:32 pm 13:32 Windy with Snow Likely 20 -6.7 12 -11.1 71 71 NW 22 35 29.97 1015 9 14 0.00 0.00
1:53 pm 13:53 Cloudy 21 -6.1 14 -10 74 74 WNW 26 43 29.88 1012 8 13 0.00 0.00
2:53 pm 14:53 Cloudy 23 -5 13 -10.6 65 65 NW 28 44 29.90 1013 10 16 0.00 0.00
3:06 pm 15:06 Mostly Cloudy 23 -5 13 -10.6 65 65 NW 25 41 29.99 1016 10 16 N/A
3:53 pm 15:53 Mostly Cloudy 25 -3.9 13 -10.6 60 60 NW 33 54 29.91 1013 10 16 N/A
4:53 pm 16:53 Mostly Cloudy 26 -3.3 13 -10.6 57 57 NW 32 52 29.92 1013 10 16 N/A
5:53 pm 17:53 Mostly Cloudy 26 -3.3 11 -11.7 53 53 NW 28 44 29.95 1014 10 16 N/A
6:53 pm 18:53 Mostly Cloudy 26 -3.3 11 -11.7 53 53 NW 28 44 29.98 1015 10 16 N/A
7:53 pm 19:53 Cloudy 24 -4.4 12 -11.1 60 60 NW 24 39 30.03 1017 10 16 N/A
8:53 pm 20:53 Cloudy 23 -5 11 -11.7 60 60 NW 25 41 30.08 1019 10 16 0.00 0.00
9:53 pm 21:53 Clear 21 -6.1 10 -12.2 62 62 NW 21 33 30.11 1020 10 16 N/A
10:53 pm 22:53 Clear 19 -7.2 11 -11.7 71 71 W 9 15 30.13 1020 10 16 N/A
11:53 pm 23:53 Clear 17 -8.3 11 -11.7 77 77 WSW 10 17 30.13 1020 10 16 N/A

Powered by AerisWeather